Regional Weather Roundup
Issued by NWS

Home | Current Version | Previous Version | Text Only | Print | Product List | Glossary On
Versions: 1 2 3 4 5 6 7 8 9 10 11 12 13 14 15 16 17 18 19 20 21 22 23 24 25 26 27 28 29 30 31 32 33 34 35 36 37 38 39 40 41 42 43 44 45 46 47 48 49 50
000
ASUS43 KLMK 270802
RWRKY
KENTUCKY REGIONAL WEATHER ROUNDUP
NATIONAL WEATHER SERVICE LOUISVILLE KY
400 AM EDT WED AUG 27 2014

NOTE "FAIR" INDICATES FEW OR NO CLOUDS BELOW 12,000 FEET
WITH NO SIGNIFICANT WEATHER AND/OR OBSTRUCTIONS TO VISIBILITY.

KYZ001>023-026-027-061>063-070>075-270900-
WESTERN AND SOUTH CENTRAL KENTUCKY

CITY           SKY/WX    TMP DP  RH WIND       PRES   REMARKS
PADUCAH        CLEAR     74  71  91 CALM      30.06S FOG
HENDERSON      CLEAR     72  70  94 CALM      30.05F VSB 1
OWENSBORO      CLEAR     76  75  96 CALM      30.07S
HOPKINSVILLE   CLEAR     72  72 100 NW1       30.08R
BOWLING GREEN  CLEAR     73  71  93 CALM      30.07F FOG
GLASGOW        CLEAR     69  69 100 CALM      30.08F FOG
$$

KYZ024-025-028>034-038-045-046-053-270900-
NORTH CENTRAL KENTUCKY

CITY           SKY/WX    TMP DP  RH WIND       PRES   REMARKS
LOUISVILLE/SDF CLEAR     78  70  76 CALM      30.07F
LOUISVILLE/LOU CLEAR     74  70  87 CALM      30.08F
FORT KNOX      CLEAR     71  71 100 CALM      30.08S
$$

KYZ035>037-039>044-047>052-055>060-089>105-270900-
NORTHEAST KENTUCKY

CITY           SKY/WX    TMP DP  RH WIND       PRES   REMARKS
LEXINGTON      LGT RAIN  70  65  84 CALM      30.10F
COVINGTON      PTCLDY    70  67  90 CALM      30.09F
FRANKFORT      CLEAR     68  67  96 CALM      30.09S
$$

KYZ054-064>069-076>088-106>120-270900-
SOUTHEAST KENTUCKY

CITY           SKY/WX    TMP DP  RH WIND       PRES   REMARKS
JACKSON        CLEAR     66  61  84 CALM      30.11S
LONDON         CLEAR     64  61  90 CALM      30.11S
SOMERSET       CLEAR     64  63  94 CALM      30.11R
MIDDLESBORO    FOG       62  62 100 CALM      30.12S VSB 1/2
MONTICELLO     SUNNY     62  61  97 CALM      30.11S FOG
$$




USA.gov is the U.S. government's official web portal to all federal, state and local government web resources and services.